Time,TemperatureF,DewpointF,PressureIn,WindDirection,WindDirectionDegrees,WindSpeedMPH,WindSpeedGustMPH,Humidity,HourlyPrecipIn,Conditions,Clouds,dailyrainin,SolarRadiationWatts/m^2,SoftwareType,DateUTC
2013-02-15 00:01:00,38.0,38.0,-100.00,NE,36,3.0,7.0,99,0.00,,,0.00,1.000000,,2013-02-15 08:01:00,
2013-02-15 00:11:00,38.0,38.0,-100.00,NE,36,3.0,7.0,99,0.00,,,0.00,1.000000,,2013-02-15 08:11:00,
2013-02-15 00:32:00,36.0,36.0,-100.00,ENE,64,2.0,5.0,100,0.00,,,0.00,1.000000,,2013-02-15 08:32:00,
2013-02-15 00:42:00,36.0,36.0,-100.00,ENE,64,2.0,5.0,100,0.00,,,0.00,1.000000,,2013-02-15 08:42:00,
2013-02-15 00:53:00,36.0,36.0,-100.00,ENE,64,2.0,5.0,100,0.00,,,0.00,1.000000,,2013-02-15 08:53:00,
2013-02-15 01:01:00,36.0,36.0,-100.00,ENE,64,2.0,5.0,100,0.00,,,0.00,1.000000,,2013-02-15 09:01:00,
2013-02-15 01:12:00,36.0,36.0,-100.00,ENE,64,2.0,5.0,100,0.00,,,0.00,1.000000,,2013-02-15 09:12:00,
2013-02-15 01:42:00,36.0,36.0,-100.00,NE,53,5.0,7.0,100,0.00,,,0.00,1.000000,,2013-02-15 09:42:00,
2013-02-15 01:52:00,36.0,36.0,-100.00,NE,53,5.0,7.0,100,0.00,,,0.00,1.000000,,2013-02-15 09:52:00,
2013-02-15 02:01:00,36.0,36.0,-100.00,NE,53,5.0,7.0,100,0.00,,,0.00,1.000000,,2013-02-15 10:01:00,
2013-02-15 02:11:00,36.0,36.0,-100.00,NE,53,5.0,7.0,100,0.00,,,0.00,1.000000,,2013-02-15 10:11:00,
2013-02-15 02:42:00,36.0,36.0,-100.00,NNE,32,4.0,4.0,100,0.00,,,0.00,1.000000,,2013-02-15 10:42:00,
2013-02-15 02:52:00,36.0,36.0,-100.00,NNE,32,4.0,4.0,100,0.00,,,0.00,1.000000,,2013-02-15 10:52:00,
2013-02-15 03:01:00,36.0,36.0,-100.00,NNE,32,4.0,4.0,100,0.00,,,0.00,1.000000,,2013-02-15 11:01:00,
2013-02-15 03:11:00,36.0,36.0,-100.00,NNE,32,4.0,4.0,100,0.00,,,0.00,1.000000,,2013-02-15 11:11:00,
2013-02-15 03:32:00,36.0,36.0,-100.00,NE,40,3.0,5.0,100,0.00,,,0.00,1.000000,,2013-02-15 11:32:00,
2013-02-15 03:42:00,36.0,36.0,-100.00,NE,40,3.0,5.0,100,0.00,,,0.00,1.000000,,2013-02-15 11:42:00,
2013-02-15 03:52:00,36.0,36.0,-100.00,NE,40,3.0,5.0,100,0.00,,,0.00,1.000000,,2013-02-15 11:52:00,
2013-02-15 04:01:00,36.0,36.0,-100.00,NE,40,3.0,5.0,100,0.00,,,0.00,1.000000,,2013-02-15 12:01:00,
2013-02-15 04:11:00,36.0,36.0,-100.00,NE,40,3.0,5.0,100,0.00,,,0.00,1.000000,,2013-02-15 12:11:00,
2013-02-15 04:32:00,36.0,36.0,-100.00,WNW,286,1.0,4.0,100,0.00,,,0.00,1.000000,,2013-02-15 12:32:00,
2013-02-15 04:42:00,36.0,36.0,-100.00,WNW,286,1.0,4.0,100,0.00,,,0.00,1.000000,,2013-02-15 12:42:00,
2013-02-15 04:52:00,36.0,36.0,-100.00,WNW,286,1.0,4.0,100,0.00,,,0.00,1.000000,,2013-02-15 12:52:00,
2013-02-15 05:02:00,36.0,36.0,-100.00,WNW,286,1.0,4.0,100,0.00,,,0.00,1.000000,,2013-02-15 13:02:00,
2013-02-15 05:11:00,36.0,36.0,-100.00,WNW,286,1.0,4.0,100,0.00,,,0.00,1.000000,,2013-02-15 13:11:00,
2013-02-15 05:42:00,35.0,35.0,-100.00,SSE,152,1.0,3.0,100,0.00,,,-99.99,1.000000,,2013-02-15 13:42:00,
2013-02-15 05:52:00,35.0,35.0,-100.00,SSE,152,1.0,3.0,100,0.00,,,-99.99,1.000000,,2013-02-15 13:52:00,
2013-02-15 06:01:00,35.0,35.0,-100.00,SSE,152,1.0,3.0,100,0.00,,,-99.99,1.000000,,2013-02-15 14:01:00,
2013-02-15 06:11:00,35.0,35.0,-100.00,SSE,152,1.0,3.0,100,0.00,,,-99.99,1.000000,,2013-02-15 14:11:00,
2013-02-15 06:42:00,35.0,35.0,-100.00,SW,222,1.0,4.0,100,0.00,,,0.00,1.000000,,2013-02-15 14:42:00,
2013-02-15 06:52:00,35.0,35.0,-100.00,SW,222,1.0,4.0,100,0.00,,,0.00,1.000000,,2013-02-15 14:52:00,
2013-02-15 07:01:00,35.0,35.0,-100.00,SW,222,1.0,4.0,100,0.00,,,0.00,1.000000,,2013-02-15 15:01:00,
2013-02-15 07:11:00,35.0,35.0,-100.00,SW,222,1.0,4.0,100,0.00,,,0.00,1.000000,,2013-02-15 15:11:00,
2013-02-15 07:32:00,35.0,35.0,-100.00,SE,142,0.0,3.0,100,0.00,,,0.00,1.000000,,2013-02-15 15:32:00,
2013-02-15 07:42:00,35.0,35.0,-100.00,SE,142,0.0,3.0,100,0.00,,,0.00,1.000000,,2013-02-15 15:42:00,
2013-02-15 07:52:00,35.0,35.0,-100.00,SE,142,0.0,3.0,100,0.00,,,0.00,1.000000,,2013-02-15 15:52:00,
2013-02-15 08:01:00,35.0,35.0,-100.00,SE,142,0.0,3.0,100,0.00,,,0.00,1.000000,,2013-02-15 16:01:00,
2013-02-15 08:11:00,35.0,35.0,-100.00,SE,142,0.0,3.0,100,0.00,,,0.00,1.000000,,2013-02-15 16:11:00,
2013-02-15 08:32:00,36.0,36.0,-100.00,SW,226,0.0,2.0,100,0.00,,,0.00,24.000000,,2013-02-15 16:32:00,
2013-02-15 08:43:00,36.0,36.0,-100.00,SW,226,0.0,2.0,100,0.00,,,0.00,24.000000,,2013-02-15 16:43:00,
2013-02-15 08:52:00,36.0,36.0,-100.00,SW,226,0.0,2.0,100,0.00,,,0.00,24.000000,,2013-02-15 16:52:00,
2013-02-15 09:01:00,36.0,36.0,-100.00,SW,226,0.0,2.0,100,0.00,,,0.00,24.000000,,2013-02-15 17:01:00,
2013-02-15 09:11:00,36.0,36.0,-100.00,SW,226,0.0,2.0,100,0.00,,,0.00,24.000000,,2013-02-15 17:11:00,
2013-02-15 09:32:00,36.0,36.0,-100.00,NE,34,2.0,3.0,100,0.00,,,0.00,75.000000,,2013-02-15 17:32:00,
2013-02-15 09:42:00,36.0,36.0,-100.00,NE,34,2.0,3.0,100,0.00,,,0.00,75.000000,,2013-02-15 17:42:00,
2013-02-15 09:52:00,36.0,36.0,-100.00,NE,34,2.0,3.0,100,0.00,,,0.00,75.000000,,2013-02-15 17:52:00,
2013-02-15 10:01:00,36.0,36.0,-100.00,NE,34,2.0,3.0,100,0.00,,,0.00,75.000000,,2013-02-15 18:01:00,
2013-02-15 10:11:00,36.0,36.0,-100.00,NE,34,2.0,3.0,100,0.00,,,0.00,75.000000,,2013-02-15 18:11:00,
2013-02-15 10:42:00,38.0,38.0,-100.00,NE,48,2.0,5.0,100,0.00,,,-99.99,124.000000,,2013-02-15 18:42:00,
2013-02-15 10:52:00,38.0,38.0,-100.00,NE,48,2.0,5.0,100,0.00,,,-99.99,124.000000,,2013-02-15 18:52:00,
2013-02-15 11:01:00,38.0,38.0,-100.00,NE,48,2.0,5.0,100,0.00,,,-99.99,124.000000,,2013-02-15 19:01:00,
2013-02-15 11:11:00,38.0,38.0,-100.00,NE,48,2.0,5.0,100,0.00,,,-99.99,124.000000,,2013-02-15 19:11:00,
2013-02-15 11:42:00,39.0,39.0,-100.00,NE,55,3.0,5.0,100,0.00,,,0.00,157.000000,,2013-02-15 19:42:00,
2013-02-15 11:52:00,39.0,39.0,-100.00,NE,55,3.0,5.0,100,0.00,,,0.00,157.000000,,2013-02-15 19:52:00,
2013-02-15 12:01:00,39.0,39.0,-100.00,NE,55,3.0,5.0,100,0.00,,,0.00,157.000000,,2013-02-15 20:01:00,
2013-02-15 12:11:00,39.0,39.0,-100.00,NE,55,3.0,5.0,100,0.00,,,0.00,157.000000,,2013-02-15 20:11:00,
2013-02-15 12:42:00,40.0,40.0,-100.00,NE,46,5.0,7.0,100,0.00,,,0.00,161.000000,,2013-02-15 20:42:00,
2013-02-15 12:52:00,40.0,40.0,-100.00,NE,46,5.0,7.0,100,0.00,,,0.00,161.000000,,2013-02-15 20:52:00,
2013-02-15 13:01:00,40.0,40.0,-100.00,NE,46,5.0,7.0,100,0.00,,,0.00,161.000000,,2013-02-15 21:01:00,
2013-02-15 13:11:00,40.0,40.0,-100.00,NE,46,5.0,7.0,100,0.00,,,0.00,161.000000,,2013-02-15 21:11:00,
2013-02-15 13:42:00,42.0,41.0,-100.00,ENE,71,3.0,7.0,95,0.00,,,0.00,190.000000,,2013-02-15 21:42:00,
2013-02-15 13:52:00,42.0,41.0,-100.00,ENE,71,3.0,7.0,95,0.00,,,0.00,190.000000,,2013-02-15 21:52:00,
2013-02-15 14:02:00,42.0,41.0,-100.00,ENE,71,3.0,7.0,95,0.00,,,0.00,190.000000,,2013-02-15 22:02:00,
2013-02-15 14:11:00,42.0,41.0,-100.00,ENE,71,3.0,7.0,95,0.00,,,0.00,190.000000,,2013-02-15 22:11:00,
2013-02-15 14:42:00,47.0,42.0,-100.00,ENE,63,3.0,7.0,82,0.00,,,0.00,302.000000,,2013-02-15 22:42:00,
2013-02-15 14:52:00,47.0,42.0,-100.00,ENE,63,3.0,7.0,82,0.00,,,0.00,302.000000,,2013-02-15 22:52:00,
2013-02-15 15:02:00,47.0,42.0,-100.00,ENE,63,3.0,7.0,82,0.00,,,0.00,302.000000,,2013-02-15 23:02:00,
2013-02-15 15:11:00,47.0,42.0,-100.00,ENE,63,3.0,7.0,82,0.00,,,0.00,302.000000,,2013-02-15 23:11:00,
2013-02-15 15:32:00,47.0,40.0,-100.00,ESE,116,4.0,7.0,77,0.00,,,0.00,288.000000,,2013-02-15 23:32:00,
2013-02-15 15:42:00,47.0,40.0,-100.00,ESE,116,4.0,7.0,77,0.00,,,0.00,288.000000,,2013-02-15 23:42:00,
2013-02-15 15:52:00,47.0,40.0,-100.00,ESE,116,4.0,7.0,77,0.00,,,0.00,288.000000,,2013-02-15 23:52:00,
2013-02-15 16:02:00,47.0,40.0,-100.00,ESE,116,4.0,7.0,77,0.00,,,0.00,288.000000,,2013-02-16 00:02:00,
2013-02-15 16:11:00,47.0,40.0,-100.00,ESE,116,4.0,7.0,77,0.00,,,0.00,288.000000,,2013-02-16 00:11:00,
2013-02-15 16:32:00,48.0,41.0,-100.00,NNE,25,4.0,8.0,77,0.00,,,0.00,247.000000,,2013-02-16 00:32:00,
2013-02-15 16:42:00,48.0,41.0,-100.00,NNE,25,4.0,8.0,77,0.00,,,0.00,247.000000,,2013-02-16 00:42:00,
2013-02-15 16:52:00,48.0,41.0,-100.00,NNE,25,4.0,8.0,77,0.00,,,0.00,247.000000,,2013-02-16 00:52:00,
2013-02-15 17:02:00,48.0,41.0,-100.00,NNE,25,4.0,8.0,77,0.00,,,0.00,247.000000,,2013-02-16 01:02:00,
2013-02-15 17:11:00,48.0,41.0,-100.00,NNE,25,4.0,8.0,77,0.00,,,0.00,247.000000,,2013-02-16 01:11:00,
2013-02-15 17:32:00,44.0,41.0,-100.00,North,11,4.0,8.0,88,0.00,,,-99.99,68.000000,,2013-02-16 01:32:00,
2013-02-15 17:42:00,44.0,41.0,-100.00,North,11,4.0,8.0,88,0.00,,,-99.99,68.000000,,2013-02-16 01:42:00,
2013-02-15 17:52:00,44.0,41.0,-100.00,North,11,4.0,8.0,88,0.00,,,-99.99,68.000000,,2013-02-16 01:52:00,
2013-02-15 18:01:00,44.0,41.0,-100.00,North,11,4.0,8.0,88,0.00,,,-99.99,68.000000,,2013-02-16 02:01:00,
2013-02-15 18:11:00,44.0,41.0,-100.00,North,11,4.0,8.0,88,0.00,,,-99.99,68.000000,,2013-02-16 02:11:00,
2013-02-15 18:42:00,40.0,39.0,-100.00,ESE,105,6.0,7.0,98,0.00,,,0.00,5.000000,,2013-02-16 02:42:00,
2013-02-15 18:52:00,40.0,39.0,-100.00,ESE,105,6.0,7.0,98,0.00,,,0.00,5.000000,,2013-02-16 02:52:00,
2013-02-15 19:01:00,40.0,39.0,-100.00,ESE,105,6.0,7.0,98,0.00,,,0.00,5.000000,,2013-02-16 03:01:00,
2013-02-15 19:11:00,40.0,39.0,-100.00,ESE,105,6.0,7.0,98,0.00,,,0.00,5.000000,,2013-02-16 03:11:00,
2013-02-15 19:42:00,39.0,39.0,-100.00,South,176,3.0,8.0,100,0.00,,,0.00,1.000000,,2013-02-16 03:42:00,
2013-02-15 19:52:00,39.0,39.0,-100.00,South,176,3.0,8.0,100,0.00,,,0.00,1.000000,,2013-02-16 03:52:00,
2013-02-15 20:01:00,39.0,39.0,-100.00,South,176,3.0,8.0,100,0.00,,,0.00,1.000000,,2013-02-16 04:01:00,
2013-02-15 20:11:00,39.0,39.0,-100.00,South,176,3.0,8.0,100,0.00,,,0.00,1.000000,,2013-02-16 04:11:00,
2013-02-15 20:32:00,39.0,39.0,-100.00,West,266,4.0,5.0,100,0.00,,,0.00,1.000000,,2013-02-16 04:32:00,
2013-02-15 20:42:00,39.0,39.0,-100.00,West,266,4.0,5.0,100,0.00,,,0.00,1.000000,,2013-02-16 04:42:00,
2013-02-15 20:52:00,39.0,39.0,-100.00,West,266,4.0,5.0,100,0.00,,,0.00,1.000000,,2013-02-16 04:52:00,
2013-02-15 21:01:00,39.0,39.0,-100.00,West,266,4.0,5.0,100,0.00,,,0.00,1.000000,,2013-02-16 05:01:00,
2013-02-15 21:11:00,39.0,39.0,-100.00,West,266,4.0,5.0,100,0.00,,,0.00,1.000000,,2013-02-16 05:11:00,
2013-02-15 21:32:00,39.0,39.0,-100.00,West,262,5.0,7.0,100,0.00,,,0.00,1.000000,,2013-02-16 05:32:00,
2013-02-15 21:42:00,39.0,39.0,-100.00,West,262,5.0,7.0,100,0.00,,,0.00,1.000000,,2013-02-16 05:42:00,
2013-02-15 21:52:00,39.0,39.0,-100.00,West,262,5.0,7.0,100,0.00,,,0.00,1.000000,,2013-02-16 05:52:00,
2013-02-15 22:01:00,39.0,39.0,-100.00,West,262,5.0,7.0,100,0.00,,,0.00,1.000000,,2013-02-16 06:01:00,
2013-02-15 22:11:00,39.0,39.0,-100.00,West,262,5.0,7.0,100,0.00,,,0.00,1.000000,,2013-02-16 06:11:00,
2013-02-15 22:42:00,39.0,39.0,-100.00,WSW,245,3.0,5.0,100,0.00,,,0.00,1.000000,,2013-02-16 06:42:00,
2013-02-15 22:52:00,39.0,39.0,-100.00,WSW,245,3.0,5.0,100,0.00,,,0.00,1.000000,,2013-02-16 06:52:00,
2013-02-15 23:02:00,39.0,39.0,-100.00,WSW,245,3.0,5.0,100,0.00,,,0.00,1.000000,,2013-02-16 07:02:00,
2013-02-15 23:11:00,39.0,39.0,-100.00,WSW,245,3.0,5.0,100,0.00,,,0.00,1.000000,,2013-02-16 07:11:00,
2013-02-15 23:32:00,38.0,38.0,-100.00,West,262,6.0,7.0,100,0.00,,,0.00,1.000000,,2013-02-16 07:32:00,
2013-02-15 23:42:00,38.0,38.0,-100.00,West,262,6.0,7.0,100,0.00,,,0.00,1.000000,,2013-02-16 07:42:00,
2013-02-15 23:53:00,38.0,38.0,-100.00,West,262,6.0,7.0,100,0.00,,,0.00,1.000000,,2013-02-16 07:53:00,